Kezdőlap
METAR-TAF:

METAR-TAF

Repülőterek :

Waupaca Municipal Airport

Waupaca, Wisconsin, Amerikai Egyesült Államok

földrajzi szélesség: 44-20-01N, földrajzi hosszúság: 089-00-55W, magasság: 252 m

Jelenlegi meteorológiai megfigyelések

A jelentés 13 perccel ezelõtt készült, 16:15 UTC
Észak-északnyugati szél 10 kt széllökések: 14 kt
Hőmérséklet 12°C
Páratartalom 30%
Légköri nyomás 1029 hPa
Látótávolság: 16.1 km
Szakadozott felhőzet 6000 lábon

METAR: KPCZ 111615Z AUTO 33010G14KT 10SM BKN060 12/M05 A3038 RMK AO2 T01211048

Idő: 11:28 (16:28 UTC)


TAF: hiányzik

Meteorológiai megfigyelések és előrejelzések több, mint 4000 repülőtéren (METAR és TAF jelentéseket).

A térképen piros és sárga pontok jelzik az elérhető meteorológiai állomásokat.

Mozgassa az egeret a pont fölött, hogy megjelenjen az állomás neve.

Azután kattintson az időjárási megfigyelések és előrejelzések megtekintéséhez.

A térkép megváltoztatása: kattintson a fekete keresztel jelölt zöld gombra ráközelítéshez, a vonallal jelölt zöld gombra távolításhoz, vagy a zöld nyilakra a szomszédos térképek eléréséhez.


METAR-TAF: